TimeCDT,TemperatureF,Dew PointF,Humidity,Sea Level PressureIn,VisibilityMPH,Wind Direction,Wind SpeedMPH,Gust SpeedMPH,PrecipitationIn,Events,Conditions,WindDirDegrees,DateUTC
12:47 AM,69.8,69.8,100,29.93,7.0,Calm,Calm,-,N/A,,Clear,0,2013-09-29 05:47:00
1:44 AM,69.8,69.8,100,29.93,7.0,Calm,Calm,-,N/A,,Partly Cloudy,0,2013-09-29 06:44:00
2:42 AM,69.8,69.8,100,29.91,7.0,Calm,Calm,-,N/A,,Partly Cloudy,0,2013-09-29 07:42:00
4:01 AM,71.6,71.6,100,29.95,7.0,North,6.9,-,N/A,,Scattered Clouds,350,2013-09-29 09:01:00
4:43 AM,71.6,71.6,100,29.92,7.0,North,5.8,-,N/A,,Scattered Clouds,10,2013-09-29 09:43:00
5:49 AM,69.8,69.8,100,29.94,7.0,ESE,4.6,-,N/A,,Scattered Clouds,120,2013-09-29 10:49:00
6:42 AM,69.8,69.8,100,29.92,7.0,Calm,Calm,-,N/A,,Scattered Clouds,0,2013-09-29 11:42:00
7:41 AM,71.6,71.6,100,29.94,8.0,Calm,Calm,-,N/A,,Scattered Clouds,0,2013-09-29 12:41:00
8:40 AM,77.0,73.4,89,29.95,8.0,Calm,Calm,-,N/A,,Scattered Clouds,0,2013-09-29 13:40:00
9:41 AM,78.8,73.4,83,29.99,8.0,NW,4.6,-,N/A,,Scattered Clouds,320,2013-09-29 14:41:00
10:46 AM,80.6,71.6,74,29.96,8.0,NNW,6.9,-,N/A,,Clear,340,2013-09-29 15:46:00
11:48 AM,80.6,71.6,74,29.96,8.0,WNW,6.9,-,N/A,,Clear,300,2013-09-29 16:48:00
12:52 PM,82.4,71.6,70,29.90,8.0,WNW,6.9,-,N/A,,Clear,300,2013-09-29 17:52:00
1:43 PM,84.2,73.4,70,29.90,8.0,NW,4.6,-,N/A,,Clear,310,2013-09-29 18:43:00
2:46 PM,84.2,73.4,70,29.87,8.0,NE,8.1,-,N/A,,Scattered Clouds,40,2013-09-29 19:46:00
3:45 PM,84.2,73.4,70,29.89,8.0,East,9.2,-,N/A,,Partly Cloudy,100,2013-09-29 20:45:00
4:45 PM,82.4,73.4,74,29.87,8.0,ENE,8.1,-,N/A,,Scattered Clouds,70,2013-09-29 21:45:00
5:55 PM,77.0,71.6,83,29.87,8.0,ENE,6.9,-,N/A,,Partly Cloudy,60,2013-09-29 22:55:00
6:48 PM,77.0,69.8,78,30.41,7.0,ENE,5.8,-,N/A,,Partly Cloudy,70,2013-09-29 23:48:00
7:50 PM,75.2,69.8,83,29.89,7.0,NE,5.8,-,N/A,,Partly Cloudy,50,2013-09-30 00:50:00
8:45 PM,75.2,69.8,83,29.92,7.0,NE,3.5,-,N/A,,Partly Cloudy,50,2013-09-30 01:45:00
9:50 PM,73.4,69.8,88,29.97,7.0,Calm,Calm,-,N/A,,Partly Cloudy,0,2013-09-30 02:50:00
10:40 PM,69.8,68.0,94,29.95,7.0,Calm,Calm,-,N/A,,Scattered Clouds,0,2013-09-30 03:40:00
11:40 PM,68.0,66.2,94,29.94,7.0,Calm,Calm,-,N/A,,Scattered Clouds,0,2013-09-30 04:40:00